| time (UTC) | temp C | wind direction | speed KPH | gust KPH | rain 1hr cm | rain 24hr cm | rain mn cm | humidity % | barometer mb |
| 20260506103143 | 24 | 0.0 | 0.0 | 0.00 | 0.00 | 0.00 | 41 | 734.3 | |
| 20260506101631 | 24 | 0.0 | 0.0 | 0.00 | 0.00 | 0.00 | 43 | 733.9 | |
| 20260506100120 | 23 | 0.0 | 0.0 | 0.00 | 0.00 | 0.00 | 46 | 733.6 | |
| 20260506094608 | 23 | 0.0 | 0.0 | 0.00 | 0.00 | 0.00 | 43 | 733.6 | |
| 20260506093056 | 23 | 0.0 | 0.0 | 0.00 | 0.00 | 0.00 | 44 | 733.2 | |
| 20260506091545 | 23 | 0.0 | 0.0 | 0.00 | 0.00 | 0.00 | 46 | 732.8 | |
| 20260506090033 | 22 | 0.0 | 0.0 | 0.00 | 0.00 | 0.00 | 49 | 732.3 | |
| 20260506084521 | 22 | 0.0 | 0.0 | 0.00 | 0.00 | 0.00 | 49 | 731.4 | |
| 20260506083009 | 21 | 0.0 | 0.0 | 0.00 | 0.00 | 0.00 | 52 | 730.8 | |
| 20260506081458 | 21 | 0.0 | 0.0 | 0.00 | 0.00 | 0.00 | 55 | 730.0 | |
| 20260506072922 | 19 | 0.0 | 0.0 | 0.00 | 0.00 | 0.00 | 66 | 728.0 | |
| 20260506071411 | 19 | 0.0 | 0.0 | 0.00 | 0.00 | 0.00 | 67 | 728.0 | |
| 20260506061324 | 17 | 0.0 | 0.0 | 0.00 | 0.00 | 0.00 | 76 | 725.9 | |
| 20260506051236 | 16 | 0.0 | 0.0 | 0.00 | 0.00 | 0.00 | 84 | 724.2 | |
| 20260506044213 | 14 | 0.0 | 0.0 | 0.00 | 0.00 | 0.00 | 83 | 722.3 | |
| 20260506042701 | 13 | 0.0 | 0.0 | 0.00 | 0.00 | 0.00 | 85 | 722.0 | |
| 20260506041149 | 13 | 0.0 | 0.0 | 0.00 | 0.00 | 0.00 | 84 | 721.3 | |
| 20260506035638 | 13 | 0.0 | 0.0 | 0.00 | 0.00 | 0.00 | 83 | 721.5 | |
| 20260506034126 | 13 | 0.0 | 0.0 | 0.00 | 0.00 | 0.00 | 82 | 721.6 | |
| 20260506032614 | 13 | 0.0 | 0.0 | 0.00 | 0.00 | 0.00 | 82 | 721.9 | |
| 20260506031103 | 14 | 0.0 | 0.0 | 0.00 | 0.00 | 0.00 | 82 | 722.2 | |
| 20260506025551 | 14 | 0.0 | 0.0 | 0.00 | 0.00 | 0.00 | 81 | 722.6 | |
| 20260506024039 | 15 | 0.0 | 0.0 | 0.00 | 0.00 | 0.00 | 81 | 723.0 | |
| 20260506022528 | 15 | 0.0 | 0.0 | 0.00 | 0.00 | 0.00 | 80 | 723.3 | |
| 20260506021016 | 15 | 0.0 | 0.0 | 0.00 | 0.00 | 0.00 | 77 | 724.0 | |
| 20260506015504 | 16 | 0.0 | 0.0 | 0.00 | 0.00 | 0.00 | 76 | 724.5 | |
| 20260506013952 | 16 | 0.0 | 0.0 | 0.00 | 0.00 | 0.00 | 77 | 724.4 | |
| 20260506012441 | 16 | 0.0 | 0.0 | 0.00 | 0.00 | 0.00 | 78 | 724.4 | |
| 20260506005417 | 16 | 0.0 | 0.0 | 0.00 | 0.00 | 0.00 | 77 | 724.9 | |
| 20260506003905 | 16 | 0.0 | 0.0 | 0.00 | 0.00 | 0.00 | 77 | 725.3 | |
| 20260506002354 | 16 | 0.0 | 0.0 | 0.00 | 0.00 | 0.00 | 78 | 725.2 | |
| 20260506000842 | 16 | 0.0 | 0.0 | 0.00 | 0.00 | 0.00 | 78 | 725.1 | |
| 20260505235330 | 17 | 0.0 | 0.0 | 0.00 | 0.00 | 0.00 | 77 | 725.5 | |
| 20260505233818 | 17 | 0.0 | 0.0 | 0.00 | 0.00 | 0.00 | 77 | 725.7 | |
| 20260505232306 | 17 | 0.0 | 0.0 | 0.00 | 0.00 | 0.00 | 77 | 725.4 | |
| 20260505230755 | 17 | 0.0 | 0.0 | 0.00 | 0.00 | 0.00 | 76 | 725.5 | |
| 20260505225243 | 17 | 0.0 | 0.0 | 0.00 | 0.00 | 0.00 | 74 | 725.9 | |
| 20260505223732 | 17 | 0.0 | 0.0 | 0.00 | 0.00 | 0.00 | 73 | 726.1 | |
| 20260505220708 | 17 | 0.0 | 0.0 | 0.00 | 0.00 | 0.00 | 70 | 726.2 | |
| 20260505215156 | 18 | 0.0 | 0.0 | 0.00 | 0.00 | 0.00 | 68 | 727.0 | |
| 20260505213644 | 18 | 0.0 | 0.0 | 0.00 | 0.00 | 0.00 | 66 | 727.5 | |
| 20260505212132 | 18 | 0.0 | 0.0 | 0.00 | 0.00 | 0.00 | 65 | 727.8 | |
| 20260505210621 | 19 | 0.0 | 0.0 | 0.00 | 0.00 | 0.00 | 63 | 728.0 | |
| 20260505205109 | 19 | 0.0 | 0.0 | 0.00 | 0.00 | 0.00 | 62 | 728.0 | |
| 20260505203557 | 19 | 0.0 | 0.0 | 0.00 | 0.00 | 0.00 | 60 | 728.4 | |
| 20260505202045 | 20 | 0.0 | 0.0 | 0.00 | 0.00 | 0.00 | 58 | 728.6 | |
| 20260505200534 | 20 | 0.0 | 0.0 | 0.00 | 0.00 | 0.00 | 57 | 728.6 | |
| 20260505195022 | 20 | 0.0 | 0.0 | 0.00 | 0.00 | 0.00 | 57 | 728.5 | |
| 20260505193510 | 20 | 0.0 | 0.0 | 0.00 | 0.00 | 0.00 | 56 | 728.5 | |
| 20260505191958 | 20 | 0.0 | 0.0 | 0.00 | 0.00 | 0.00 | 57 | 728.5 | |
| 20260505190447 | 20 | 0.0 | 0.0 | 0.00 | 0.00 | 0.00 | 57 | 728.9 | |
| 20260505184935 | 20 | 0.0 | 0.0 | 0.00 | 0.00 | 0.00 | 54 | 729.6 | |
| 20260505183423 | 22 | 0.0 | 0.0 | 0.00 | 0.00 | 0.00 | 43 | 731.6 | |
| 20260505181912 | 24 | 0.0 | 0.0 | 0.00 | 0.00 | 0.00 | 39 | 733.6 | |
| 20260505180400 | 25 | 0.0 | 0.0 | 0.00 | 0.00 | 0.00 | 37 | 734.6 | |
| 20260505174848 | 26 | 0.0 | 0.0 | 0.00 | 0.00 | 0.00 | 32 | 736.2 | |
| 20260505173336 | 27 | 0.0 | 0.0 | 0.00 | 0.00 | 0.00 | 31 | 737.4 | |
| 20260505171824 | 31 | 0.0 | 0.0 | 0.00 | 0.00 | 0.00 | 25 | 741.5 | |
| 20260505170313 | 33 | 0.0 | 0.0 | 0.00 | 0.00 | 0.00 | 25 | 744.6 | |
| 20260505164801 | 30 | 0.0 | 0.0 | 0.00 | 0.00 | 0.00 | 26 | 741.1 | |
| 20260505163249 | 32 | 0.0 | 0.0 | 0.00 | 0.00 | 0.00 | 25 | 743.7 | |
| 20260505161737 | 36 | 0.0 | 0.0 | 0.00 | 0.00 | 0.00 | 20 | 747.9 | |
| 20260505160227 | 38 | 0.0 | 0.0 | 0.00 | 0.00 | 0.00 | 18 | 749.9 | |
| 20260505153202 | 38 | 0.0 | 0.0 | 0.00 | 0.00 | 0.00 | 19 | 749.8 | |
| 20260505151650 | 37 | 0.0 | 0.0 | 0.00 | 0.00 | 0.00 | 20 | 748.6 | |
| 20260505150139 | 36 | 0.0 | 0.0 | 0.00 | 0.00 | 0.00 | 18 | 748.0 | |
| 20260505124453 | 33 | 0.0 | 0.0 | 0.00 | 0.00 | 0.00 | 24 | 744.4 | |
| 20260505122941 | 32 | 0.0 | 0.0 | 0.00 | 0.00 | 0.00 | 28 | 743.7 | |
| 20260505121429 | 30 | 0.0 | 0.0 | 0.00 | 0.00 | 0.00 | 24 | 741.4 | |
| 20260505115918 | 30 | 0.0 | 0.0 | 0.00 | 0.00 | 0.00 | 27 | 741.3 | |
| 20260505114406 | 28 | 0.0 | 0.0 | 0.00 | 0.00 | 0.00 | 31 | 739.2 | |
| 20260505112854 | 28 | 0.0 | 0.0 | 0.00 | 0.00 | 0.00 | 31 | 738.9 | |
| 20260505111342 | 27 | 0.0 | 0.0 | 0.00 | 0.00 | 0.00 | 36 | 737.7 |